Find Starlink 32454

NORAD ID: 62142 Int'l Des: 2024-224 Owner: SPXS Country: US Constellation: starlink operational
LEOCIRCULAR

Current View

Loading 3D Globe...

About Starlink 32454

Starlink 32454 (NORAD 62142) is a starlink constellation satellite (v2 mini) launched Nov 30, 2024 by SPXS of US. It operates in LEO, CIRCULAR orbit with a mass of 730.00 kg.

Upcoming Passes

Passes for default location (London). Set your location on the main map for personalized predictions.

Altitude History

Loading altitude history...

Two-Line Element Set

1 62142U 24224D 26264.00349066 .00018568 00000-0 68223-3 0 9999
2 62142 43.0006 142.6048 0001621 267.6898 92.3768 15.27596232102269
Epoch: Sep 21, 2026 • Age: 17 hours

Current Status

Altitude 493.7 km
Apogee / Perigee N/A
Velocity 7.62 km/s
Sub-Earth Point -39.49°S, 179.17°W
Launch Date Nov 30, 2024
Age 1.8 years
Type internet

Technical Details

Classification Payload
Mass 730.00 kg
Dry Mass 700.00 kg
Length 0.30 m
Span 29.00 m
Shape ? Box + pan
Manufacturer SPXS
Bus Type Starlink V2M
Phase Status In Orbit
Owner/State SPXS/US

Most Searched